Location: Granada Hills
(34.2650°N, 118.5220°W)
Time: 08:31:18
(UTC-07:00)

deb Kosmos-1763 - Visible Passes

Search period start: 21 April 2014 00:00
Search period end: 01 May 2014 00:00
Orbit: 574 x 586 km, 74.0° (Epoch: 21 April)

Date Brightness Start Highest point End Pass type
(mag) Time Alt. Az. Time Alt. Az. Time Alt. Az.
26 Apr 7.5 23:09:17 10° N 23:09:34 12° N 23:09:34 12° N visible
27 Apr 7.4 23:13:44 10° N 23:14:15 13° N 23:14:15 13° N visible
28 Apr 7.4 23:18:16 10° NNW 23:18:55 14° NNW 23:18:55 14° NNW visible
29 Apr 7.4 23:22:53 10° NNW 23:23:32 14° NNW 23:23:32 14° NNW visible
30 Apr 6.7 21:50:32 10° NNE 21:51:49 15° NE 21:51:49 15° NE visible
30 Apr 7.5 23:27:37 10° NW 23:28:08 13° NW 23:28:08 13° NW visible
